Regional Weather Roundup
Issued by NWS

Home | Current Version | Previous Version | Graphics & Text | Print | Product List | Glossary On
Versions: 1 2 3 4 5 6 7 8 9 10 11 12 13 14 15 16 17 18 19 20 21 22 23 24 25 26 27 28 29 30 31 32 33 34 35 36 37 38 39 40 41 42 43 44 45 46 47 48 49 50
746
ASUS43 KIND 240509
RWRIN

WEATHER ROUNDUP FOR INDIANA
NATIONAL WEATHER SERVICE INDIANAPOLIS IN
1200 AM EST SAT FEB 24 2018

NOTE: "FAIR" INDICATES FEW OR NO CLOUDS BELOW 12,000 FEET WITH NO
SIGNIFICANT WEATHER AND/OR OBSTRUCTIONS TO VISIBILITY.

* - STATION DOES NOT REPORT WEATHER SUCH AS PRECIPITATION OR FOG.

+ - STATION NOT QUALITY CONTROLLED BY THE NATIONAL WEATHER SERVICE.
    USE DATA WITH CAUTION...ESPECIALLY DEWPOINT AND RELATIVE
    HUMIDITY OBSERVATIONS.

INZ001>003-010>013-019-020-240600-
NORTHWEST INDIANA

CITY           SKY/WX    TMP DP  RH WIND       PRES   REMARKS
GARY /AIRPORT/ CLOUDY    40  34  80 W5        30.26F WCI  36
LA PORTE +     CLOUDY    36  33  88 N6        30.25F WCI  31
MICHIGAN CITY+ CLOUDY    36  34  93 CALM      30.27S
MONTICELLO +   CLOUDY    37  36  95 NW9       30.23F WCI  31
RENSSELAER +   FAIR      37  32  81 CALM      30.25F
VALPARAISO     CLOUDY    38  34  85 NW3       30.26F

$$

LMZ046-743>745-240600-
SOUTHERN LAKE MICHIGAN

STATION/POSITION TIME  TEMP    WIND        PRES    WAVE
                       AIR SEA DIR/SP/G            HT
                 (UTC) (F)     (DEG/KT/KT) (MB)    (FT)
BURNS HARBOR     0440   37        CALM     1025.4S
MICHIGAN CITY    0440   36     220/  6/  6   N/A

$$

INZ004-005-014>016-021>024-240600-
NORTH CENTRAL INDIANA

CITY           SKY/WX    TMP DP  RH WIND       PRES   REMARKS
GOSHEN         CLOUDY    37  34  89 N12       30.23F WCI  29
LOGANSPORT +   CLOUDY    37  36  93 N8        30.24F WCI  31
PERU/GRISSOM   CLOUDY    39  39 100 NW10      30.21F WCI  32
ROCHESTER +    CLOUDY    41  37  87 NW7       30.24F
SOUTH BEND     CLOUDY    36  32  85 NW6       30.26S WCI  31
WARSAW +       CLOUDY    37  36  93 N6        30.23F WCI  33

$$

INZ006>009-017-018-025>027-240600-
NORTHEAST INDIANA

CITY           SKY/WX    TMP DP  RH WIND       PRES   REMARKS
AUBURN +       CLOUDY    41  37  87 NW7       30.22F
FORT WAYNE     CLOUDY    42  40  92 NW6       30.22F
HUNTINGTON +   CLOUDY    40  39  96 CALM      30.22F
KENDALLVILLE + CLOUDY    38  37  97 N9        30.22F FOG     WCI  31

$$

INZ028-029-035-036-043>045-051>053-240600-
WEST CENTRAL INDIANA

CITY           SKY/WX    TMP DP  RH WIND       PRES   REMARKS
CRAWFORDSVL +  CLOUDY    39  39 100 NW6         N/A  FOG     WCI  34
GREENCASTLE +  CLOUDY    43  41  93 N5        30.21S
LAFAYETTE      CLOUDY    38  37  97 N9        30.22F WCI  31
TERRE HAUTE    LGT RAIN  43  42  97 N6        30.22S

$$

INZ030>032-037>040-046>048-054>057-064-065-240600-
CENTRAL INDIANA

CITY           SKY/WX    TMP DP  RH WIND       PRES   REMARKS
FISHERS *+     CLOUDY    43  43 100 N6        30.22
GREENWOOD *+   CLOUDY    44 -45   2 N5        30.20S
INDIANAPOLIS   CLOUDY    44  42  93 N10       30.21R
-EAGLE CREEK   LGT RAIN  45  41  86 N3        30.20S
KOKOMO +       CLOUDY    40  39  97 N10       30.21F WCI  33
MARION +       CLOUDY    41  40  96 CALM      30.22S FOG
MT COMFORT *+  CLOUDY    45  45 100 N6        30.21R
SHELBYVILLE    CLOUDY    48  43  82 N6        30.19F
ZIONSVILLE +   CLOUDY    41  41  99 N6        30.22S

$$

INZ033-034-041-042-049-050-058-059-240600-
EAST CENTRAL INDIANA

CITY           SKY/WX    TMP DP  RH WIND       PRES   REMARKS
MUNCIE         CLOUDY    45  42  89 N6        30.20F
RICHMOND +     CLOUDY    45  45 100 N6        30.19F

$$

INZ060-061-067>069-081>083-085>088-240600-
SOUTHWEST INDIANA

CITY           SKY/WX    TMP DP  RH WIND       PRES   REMARKS
EVANSVILLE     FAIR      48  48 100 CALM      30.19F
HUNTINGBURG +  CLOUDY    49  48  97 E3        30.20S
WASHINGTON +   FAIR      47  46  93 N12       30.19S

$$

INZ062-063-066-070>080-084-089>092-240600-
SOUTH CENTRAL AND SOUTHEAST INDIANA

CITY           SKY/WX    TMP DP  RH WIND       PRES   REMARKS
BATESVILLE +   CLOUDY    48  48 100 MISG      30.18F
BEDFORD +      CLOUDY    48  46  93 CALM      30.19S
BLOOMINGTON    CLOUDY    47  45  93 N9        30.19F
FRENCH LICK *+ CLOUDY    46 N/A N/A CALM      30.20S
MADISON *+     CLOUDY    50  46  87 CALM      30.21S
NORTH VERNON + CLOUDY    48  46  93 N3        30.19F
SEYMOUR +      CLOUDY    52  48  87 NE5       30.19S

$$





USA.gov is the U.S. government's official web portal to all federal, state and local government web resources and services.